Time,TemperatureF,DewpointF,PressureIn,WindDirection,WindDirectionDegrees,WindSpeedMPH,WindSpeedGustMPH,Humidity,HourlyPrecipIn,Conditions,Clouds,dailyrainin,SoftwareType,DateUTC
2013-07-19 00:01:00,79.0,71.5,29.68,NW,315,0.0,0.0,78,0.00,,,0.00,VWS V14.01,2013-07-19 04:01:00,
2013-07-19 00:03:00,79.0,71.5,29.68,NW,315,0.0,0.0,78,0.00,,,0.00,VWS V14.01,2013-07-19 04:03:00,
2013-07-19 00:06:00,79.0,71.5,29.68,NW,315,0.0,0.0,78,0.00,,,0.00,VWS V14.01,2013-07-19 04:06:00,
2013-07-19 00:11:00,78.8,71.4,29.65,NW,315,0.0,0.0,78,0.00,,,0.00,VWS V14.01,2013-07-19 04:11:00,
2013-07-19 00:16:00,78.8,71.7,29.65,NW,315,0.0,0.0,79,0.00,,,0.00,VWS V14.01,2013-07-19 04:16:00,
2013-07-19 00:21:00,78.6,71.6,29.65,NW,315,0.0,0.0,79,0.00,,,0.00,VWS V14.01,2013-07-19 04:21:00,
2013-07-19 00:26:00,78.6,71.6,29.65,NW,315,0.0,0.0,79,0.00,,,0.00,VWS V14.01,2013-07-19 04:26:00,
2013-07-19 00:31:00,78.6,71.6,29.65,NW,315,0.0,0.0,79,0.00,,,0.00,VWS V14.01,2013-07-19 04:31:00,
2013-07-19 00:36:00,78.6,71.6,29.65,NW,315,0.0,0.0,79,0.00,,,0.00,VWS V14.01,2013-07-19 04:36:00,
2013-07-19 00:41:00,78.6,71.9,29.65,NW,315,0.0,0.0,80,0.00,,,0.00,VWS V14.01,2013-07-19 04:41:00,
2013-07-19 00:46:00,78.6,71.9,29.65,NW,315,0.0,0.0,80,0.00,,,0.00,VWS V14.01,2013-07-19 04:46:00,
2013-07-19 00:51:00,78.6,71.9,29.65,NW,315,0.0,0.0,80,0.00,,,0.00,VWS V14.01,2013-07-19 04:51:00,
2013-07-19 00:56:00,78.4,71.8,29.65,NW,315,0.0,0.0,80,0.00,,,0.00,VWS V14.01,2013-07-19 04:56:00,
2013-07-19 01:02:00,78.4,71.8,29.65,NW,315,0.0,0.0,80,0.00,,,0.00,VWS V14.01,2013-07-19 05:02:00,
2013-07-19 01:07:00,78.4,71.8,29.65,NW,315,0.0,0.0,80,0.00,,,0.00,VWS V14.01,2013-07-19 05:07:00,
2013-07-19 01:12:00,78.4,71.8,29.65,NW,315,0.0,0.0,80,0.00,,,0.00,VWS V14.01,2013-07-19 05:12:00,
2013-07-19 01:17:00,78.3,72.0,29.65,NW,315,0.0,0.0,81,0.00,,,0.00,VWS V14.01,2013-07-19 05:17:00,
2013-07-19 01:22:00,78.3,72.0,29.65,NW,315,0.0,0.0,81,0.00,,,0.00,VWS V14.01,2013-07-19 05:22:00,
2013-07-19 01:27:00,78.1,71.8,29.65,NW,315,0.0,0.0,81,0.00,,,0.00,VWS V14.01,2013-07-19 05:27:00,
2013-07-19 01:32:00,78.1,71.8,29.65,NW,315,0.0,0.0,81,0.00,,,0.00,VWS V14.01,2013-07-19 05:32:00,
2013-07-19 01:37:00,78.1,71.8,29.65,NW,315,0.0,0.0,81,0.00,,,0.00,VWS V14.01,2013-07-19 05:37:00,
2013-07-19 01:42:00,78.1,71.8,29.65,NW,315,0.0,0.0,81,0.00,,,0.00,VWS V14.01,2013-07-19 05:42:00,
2013-07-19 01:47:00,78.1,72.1,29.65,NW,315,0.0,0.0,82,0.00,,,0.00,VWS V14.01,2013-07-19 05:47:00,
2013-07-19 01:52:00,77.9,72.0,29.65,NW,315,0.0,0.0,82,0.00,,,0.00,VWS V14.01,2013-07-19 05:52:00,
2013-07-19 01:57:00,77.9,72.0,29.65,NW,315,0.0,0.0,82,0.00,,,0.00,VWS V14.01,2013-07-19 05:57:00,
2013-07-19 02:02:00,77.7,71.8,29.65,NW,315,0.0,0.0,82,0.00,,,0.00,VWS V14.01,2013-07-19 06:02:00,
2013-07-19 02:07:00,77.7,71.8,29.65,NW,315,0.0,0.0,82,0.00,,,0.00,VWS V14.01,2013-07-19 06:07:00,
2013-07-19 02:12:00,77.7,71.8,29.65,NW,315,0.0,0.0,82,0.00,,,0.00,VWS V14.01,2013-07-19 06:12:00,
2013-07-19 02:17:00,77.7,72.2,29.65,NW,315,0.0,0.0,83,0.00,,,0.00,VWS V14.01,2013-07-19 06:17:00,
2013-07-19 02:22:00,77.7,71.8,29.65,NW,315,0.0,0.0,82,0.00,,,0.00,VWS V14.01,2013-07-19 06:22:00,
2013-07-19 02:27:00,77.5,72.0,29.65,NW,315,0.0,0.0,83,0.00,,,0.00,VWS V14.01,2013-07-19 06:27:00,
2013-07-19 02:32:00,77.5,72.0,29.65,NW,315,0.0,0.0,83,0.00,,,0.00,VWS V14.01,2013-07-19 06:32:00,
2013-07-19 02:37:00,77.5,72.0,29.65,NW,315,0.0,0.0,83,0.00,,,0.00,VWS V14.01,2013-07-19 06:37:00,
2013-07-19 02:43:00,77.5,72.0,29.62,NW,315,0.0,0.0,83,0.00,,,0.00,VWS V14.01,2013-07-19 06:43:00,
2013-07-19 02:48:00,77.4,71.8,29.62,NW,315,0.0,0.0,83,0.00,,,0.00,VWS V14.01,2013-07-19 06:48:00,
2013-07-19 02:53:00,77.4,71.8,29.62,NW,315,0.0,0.0,83,0.00,,,0.00,VWS V14.01,2013-07-19 06:53:00,
2013-07-19 02:58:00,77.4,71.8,29.62,NW,315,0.0,0.0,83,0.00,,,0.00,VWS V14.01,2013-07-19 06:58:00,
2013-07-19 03:03:00,77.4,71.8,29.62,NW,315,0.0,0.0,83,0.00,,,0.00,VWS V14.01,2013-07-19 07:03:00,
2013-07-19 03:08:00,77.2,71.6,29.62,NW,315,0.0,0.0,83,0.00,,,0.00,VWS V14.01,2013-07-19 07:08:00,
2013-07-19 03:13:00,77.2,72.0,29.62,NW,315,0.0,0.0,84,0.00,,,0.00,VWS V14.01,2013-07-19 07:13:00,
2013-07-19 03:18:00,77.2,72.0,29.62,NW,315,0.0,0.0,84,0.00,,,0.00,VWS V14.01,2013-07-19 07:18:00,
2013-07-19 03:23:00,77.0,71.8,29.62,NW,315,0.0,0.0,84,0.00,,,0.00,VWS V14.01,2013-07-19 07:23:00,
2013-07-19 03:28:00,77.0,71.8,29.62,NW,315,0.0,0.0,84,0.00,,,0.00,VWS V14.01,2013-07-19 07:28:00,
2013-07-19 03:33:00,77.0,71.8,29.62,NW,315,0.0,0.0,84,0.00,,,0.00,VWS V14.01,2013-07-19 07:33:00,
2013-07-19 03:38:00,77.0,71.8,29.62,NW,315,0.0,0.0,84,0.00,,,0.00,VWS V14.01,2013-07-19 07:38:00,
2013-07-19 03:43:00,77.0,71.8,29.62,NW,315,0.0,0.0,84,0.00,,,0.00,VWS V14.01,2013-07-19 07:43:00,
2013-07-19 03:48:00,77.0,71.8,29.62,NW,315,0.0,0.0,84,0.00,,,0.00,VWS V14.01,2013-07-19 07:48:00,
2013-07-19 03:53:00,76.8,71.6,29.62,NW,315,0.0,0.0,84,0.00,,,0.00,VWS V14.01,2013-07-19 07:53:00,
2013-07-19 03:58:00,76.8,71.6,29.62,NW,315,0.0,0.0,84,0.00,,,0.00,VWS V14.01,2013-07-19 07:58:00,
2013-07-19 04:03:00,76.8,72.0,29.62,NW,315,0.0,0.0,85,0.00,,,0.00,VWS V14.01,2013-07-19 08:03:00,
2013-07-19 04:08:00,76.8,72.0,29.62,NW,315,0.0,0.0,85,0.00,,,0.00,VWS V14.01,2013-07-19 08:08:00,
2013-07-19 04:13:00,76.8,72.0,29.62,NW,315,0.0,0.0,85,0.00,,,0.00,VWS V14.01,2013-07-19 08:13:00,
2013-07-19 04:18:00,76.8,72.0,29.62,NW,315,0.0,0.0,85,0.00,,,0.00,VWS V14.01,2013-07-19 08:18:00,
2013-07-19 04:23:00,76.6,71.8,29.62,NW,315,0.0,0.0,85,0.00,,,0.00,VWS V14.01,2013-07-19 08:23:00,
2013-07-19 04:28:00,76.6,71.8,29.62,NW,315,0.0,0.0,85,0.00,,,0.00,VWS V14.01,2013-07-19 08:28:00,
2013-07-19 04:33:00,76.6,71.8,29.62,NW,315,0.0,0.0,85,0.00,,,0.00,VWS V14.01,2013-07-19 08:33:00,
2013-07-19 04:38:00,76.6,71.8,29.62,NW,315,0.0,0.0,85,0.00,,,0.00,VWS V14.01,2013-07-19 08:38:00,
2013-07-19 04:44:00,76.6,71.8,29.62,NW,315,0.0,0.0,85,0.00,,,0.00,VWS V14.01,2013-07-19 08:44:00,
2013-07-19 04:49:00,76.5,71.6,29.62,NW,315,0.0,0.0,85,0.00,,,0.00,VWS V14.01,2013-07-19 08:49:00,
2013-07-19 04:54:00,76.5,71.6,29.62,NW,315,0.0,0.0,85,0.00,,,0.00,VWS V14.01,2013-07-19 08:54:00,
2013-07-19 04:59:00,76.5,71.6,29.62,NW,315,0.0,0.0,85,0.00,,,0.00,VWS V14.01,2013-07-19 08:59:00,
2013-07-19 05:04:00,76.5,72.0,29.62,NW,315,0.0,0.0,86,0.00,,,0.00,VWS V14.01,2013-07-19 09:04:00,
2013-07-19 05:09:00,76.5,72.0,29.62,NW,315,0.0,0.0,86,0.00,,,0.00,VWS V14.01,2013-07-19 09:09:00,
2013-07-19 05:14:00,76.3,71.8,29.62,NW,315,0.0,0.0,86,0.00,,,0.00,VWS V14.01,2013-07-19 09:14:00,
2013-07-19 05:19:00,76.1,71.6,29.62,NW,315,0.0,0.0,86,0.00,,,0.00,VWS V14.01,2013-07-19 09:19:00,
2013-07-19 05:24:00,76.1,71.6,29.62,NW,315,0.0,0.0,86,0.00,,,0.00,VWS V14.01,2013-07-19 09:24:00,
2013-07-19 05:29:00,75.9,71.4,29.62,NW,315,0.0,0.0,86,0.00,,,0.00,VWS V14.01,2013-07-19 09:29:00,
2013-07-19 05:34:00,75.9,71.4,29.62,NW,315,0.0,0.0,86,0.00,,,0.00,VWS V14.01,2013-07-19 09:34:00,
2013-07-19 05:39:00,76.1,71.6,29.62,NW,315,0.0,0.0,86,0.00,,,0.00,VWS V14.01,2013-07-19 09:39:00,
2013-07-19 05:44:00,76.1,71.6,29.65,NW,315,0.0,0.0,86,0.00,,,0.00,VWS V14.01,2013-07-19 09:44:00,
2013-07-19 05:49:00,76.1,71.6,29.65,NW,315,0.0,0.0,86,0.00,,,0.00,VWS V14.01,2013-07-19 09:49:00,
2013-07-19 05:54:00,76.1,71.6,29.62,NW,315,0.0,0.0,86,0.00,,,0.00,VWS V14.01,2013-07-19 09:54:00,
2013-07-19 05:59:00,76.1,71.6,29.62,NW,315,0.0,0.0,86,0.00,,,0.00,VWS V14.01,2013-07-19 09:59:00,
2013-07-19 06:04:00,76.1,71.6,29.62,NW,315,0.0,0.0,86,0.00,,,0.00,VWS V14.01,2013-07-19 10:04:00,
2013-07-19 06:09:00,76.1,71.6,29.65,NW,315,0.0,0.0,86,0.00,,,0.00,VWS V14.01,2013-07-19 10:09:00,
2013-07-19 06:14:00,76.1,71.9,29.65,NW,315,0.0,0.0,87,0.00,,,0.00,VWS V14.01,2013-07-19 10:14:00,
2013-07-19 06:19:00,75.9,71.8,29.65,NW,315,0.0,0.0,87,0.00,,,0.00,VWS V14.01,2013-07-19 10:19:00,
2013-07-19 06:24:00,75.9,71.8,29.65,NW,315,0.0,0.0,87,0.00,,,0.00,VWS V14.01,2013-07-19 10:24:00,
2013-07-19 06:30:00,76.1,71.9,29.65,NW,315,0.0,0.0,87,0.00,,,0.00,VWS V14.01,2013-07-19 10:30:00,
2013-07-19 06:35:00,76.1,71.9,29.65,NW,315,0.0,0.0,87,0.00,,,0.00,VWS V14.01,2013-07-19 10:35:00,
2013-07-19 06:40:00,76.1,71.9,29.65,NW,315,0.0,0.0,87,0.00,,,0.00,VWS V14.01,2013-07-19 10:40:00,
2013-07-19 06:45:00,76.1,71.9,29.65,NW,315,0.0,0.0,87,0.00,,,0.00,VWS V14.01,2013-07-19 10:45:00,
2013-07-19 06:50:00,76.1,71.9,29.65,NW,315,0.0,0.0,87,0.00,,,0.00,VWS V14.01,2013-07-19 10:50:00,
2013-07-19 06:55:00,76.3,72.5,29.65,NNW,338,0.0,0.0,88,0.00,,,0.00,VWS V14.01,2013-07-19 10:55:00,
2013-07-19 07:00:00,76.3,72.5,29.65,NW,315,0.0,0.0,88,0.00,,,0.00,VWS V14.01,2013-07-19 11:00:00,
2013-07-19 07:05:00,76.3,72.5,29.65,NW,315,0.0,0.0,88,0.00,,,0.00,VWS V14.01,2013-07-19 11:05:00,
2013-07-19 07:10:00,76.5,72.7,29.65,NW,315,0.0,0.0,88,0.00,,,0.00,VWS V14.01,2013-07-19 11:10:00,
2013-07-19 07:15:00,76.5,72.7,29.65,NW,315,0.0,0.0,88,0.00,,,0.00,VWS V14.01,2013-07-19 11:15:00,
2013-07-19 07:20:00,76.6,72.8,29.65,NW,315,0.0,0.0,88,0.00,,,0.00,VWS V14.01,2013-07-19 11:20:00,
2013-07-19 07:25:00,76.8,73.0,29.65,NW,315,0.0,0.0,88,0.00,,,0.00,VWS V14.01,2013-07-19 11:25:00,
2013-07-19 07:30:00,76.8,73.0,29.65,NW,315,0.0,0.0,88,0.00,,,0.00,VWS V14.01,2013-07-19 11:30:00,
2013-07-19 07:35:00,77.0,72.8,29.65,NW,315,0.0,0.0,87,0.00,,,0.00,VWS V14.01,2013-07-19 11:35:00,
2013-07-19 07:40:00,77.2,73.0,29.65,NW,315,0.0,0.0,87,0.00,,,0.00,VWS V14.01,2013-07-19 11:40:00,
2013-07-19 07:45:00,77.4,73.2,29.65,NW,315,0.0,0.0,87,0.00,,,0.00,VWS V14.01,2013-07-19 11:45:00,
2013-07-19 07:50:00,77.5,73.4,29.65,NW,315,0.0,0.0,87,0.00,,,0.00,VWS V14.01,2013-07-19 11:50:00,
2013-07-19 07:55:00,77.7,73.6,29.65,NW,315,0.0,0.0,87,0.00,,,0.00,VWS V14.01,2013-07-19 11:55:00,
2013-07-19 08:00:00,77.9,73.7,29.65,NNW,338,0.0,0.0,87,0.00,,,0.00,VWS V14.01,2013-07-19 12:00:00,
2013-07-19 08:05:00,78.1,73.9,29.65,NNW,338,0.0,0.0,87,0.00,,,0.00,VWS V14.01,2013-07-19 12:05:00,
2013-07-19 08:10:00,78.4,74.2,29.65,NW,315,0.0,0.0,87,0.00,,,0.00,VWS V14.01,2013-07-19 12:10:00,
2013-07-19 08:15:00,79.2,74.6,29.65,NNW,338,0.0,0.0,86,0.00,,,0.00,VWS V14.01,2013-07-19 12:15:00,
2013-07-19 08:20:00,79.9,75.3,29.65,NW,315,0.0,0.0,86,0.00,,,0.00,VWS V14.01,2013-07-19 12:20:00,
2013-07-19 08:25:00,81.0,75.7,29.65,NW,315,0.0,0.0,84,0.00,,,0.00,VWS V14.01,2013-07-19 12:25:00,
2013-07-19 08:31:00,81.9,76.2,29.65,NW,315,0.0,0.0,83,0.00,,,0.00,VWS V14.01,2013-07-19 12:31:00,
2013-07-19 08:36:00,82.6,76.5,29.65,NNW,338,0.0,0.0,82,0.00,,,0.00,VWS V14.01,2013-07-19 12:36:00,
2013-07-19 08:41:00,83.3,76.5,29.65,NNW,338,0.0,0.0,80,0.00,,,0.00,VWS V14.01,2013-07-19 12:41:00,
2013-07-19 08:46:00,84.4,77.2,29.65,NNW,338,0.0,0.0,79,0.00,,,0.00,VWS V14.01,2013-07-19 12:46:00,
2013-07-19 08:51:00,84.9,77.3,29.65,NW,315,0.0,0.0,78,0.00,,,0.00,VWS V14.01,2013-07-19 12:51:00,
2013-07-19 08:56:00,85.3,77.3,29.65,NW,315,0.0,0.0,77,0.00,,,0.00,VWS V14.01,2013-07-19 12:56:00,
2013-07-19 09:01:00,86.4,77.9,29.65,NW,315,0.0,0.0,76,0.00,,,0.00,VWS V14.01,2013-07-19 13:01:00,
2013-07-19 09:06:00,86.9,78.0,29.65,NNW,338,0.0,0.0,75,0.00,,,0.00,VWS V14.01,2013-07-19 13:06:00,
2013-07-19 09:11:00,87.3,78.4,29.65,NW,315,0.0,0.0,75,0.00,,,0.00,VWS V14.01,2013-07-19 13:11:00,
2013-07-19 09:16:00,87.8,78.5,29.65,NW,315,0.0,0.0,74,0.00,,,0.00,VWS V14.01,2013-07-19 13:16:00,
2013-07-19 09:21:00,88.3,78.6,29.65,NW,315,0.0,0.0,73,0.00,,,0.00,VWS V14.01,2013-07-19 13:21:00,
2013-07-19 09:26:00,88.9,79.1,29.65,NW,315,0.0,0.0,73,0.00,,,0.00,VWS V14.01,2013-07-19 13:26:00,
2013-07-19 09:31:00,89.4,79.2,29.65,NW,315,0.0,0.0,72,0.00,,,0.00,VWS V14.01,2013-07-19 13:31:00,
2013-07-19 09:36:00,89.6,78.9,29.65,NW,315,0.0,0.0,71,0.00,,,0.00,VWS V14.01,2013-07-19 13:36:00,
2013-07-19 09:41:00,90.1,79.0,29.65,NW,315,0.0,0.0,70,0.00,,,0.00,VWS V14.01,2013-07-19 13:41:00,
2013-07-19 09:46:00,90.9,79.3,29.65,NNW,338,0.0,0.0,69,0.00,,,0.00,VWS V14.01,2013-07-19 13:46:00,
2013-07-19 09:51:00,90.7,79.1,29.65,NNW,338,0.0,0.0,69,0.00,,,0.00,VWS V14.01,2013-07-19 13:51:00,
2013-07-19 09:56:00,90.9,78.8,29.65,NNW,338,0.0,0.0,68,0.00,,,0.00,VWS V14.01,2013-07-19 13:56:00,
2013-07-19 10:01:00,91.0,78.6,29.65,NNW,338,0.0,0.0,67,0.00,,,0.00,VWS V14.01,2013-07-19 14:01:00,
2013-07-19 10:07:00,91.9,79.0,29.65,NNW,338,0.0,0.0,66,0.00,,,0.00,VWS V14.01,2013-07-19 14:07:00,
2013-07-19 10:12:00,91.4,78.4,29.65,NNW,338,0.0,0.0,66,0.00,,,0.00,VWS V14.01,2013-07-19 14:12:00,
2013-07-19 10:17:00,92.3,79.3,29.65,NNW,338,0.0,0.0,66,0.00,,,0.00,VWS V14.01,2013-07-19 14:17:00,
2013-07-19 10:22:00,92.5,79.0,29.65,NNW,338,0.0,0.0,65,0.00,,,0.00,VWS V14.01,2013-07-19 14:22:00,
2013-07-19 10:27:00,92.7,79.2,29.65,NW,315,0.0,0.0,65,0.00,,,0.00,VWS V14.01,2013-07-19 14:27:00,
2013-07-19 10:32:00,92.3,78.8,29.65,NW,315,0.0,0.0,65,0.00,,,0.00,VWS V14.01,2013-07-19 14:32:00,
2013-07-19 10:37:00,91.8,78.3,29.65,NNW,338,0.0,0.0,65,0.00,,,0.00,VWS V14.01,2013-07-19 14:37:00,
2013-07-19 10:42:00,91.0,77.6,29.65,NNW,338,0.0,0.0,65,0.00,,,0.00,VWS V14.01,2013-07-19 14:42:00,
2013-07-19 10:47:00,91.2,77.8,29.65,NNW,338,0.0,0.0,65,0.00,,,0.00,VWS V14.01,2013-07-19 14:47:00,
2013-07-19 10:52:00,90.7,77.3,29.65,NW,315,0.0,0.0,65,0.00,,,0.00,VWS V14.01,2013-07-19 14:52:00,
2013-07-19 10:57:00,90.7,77.8,29.65,NNW,338,0.0,0.0,66,0.00,,,0.00,VWS V14.01,2013-07-19 14:57:00,
2013-07-19 11:02:00,90.3,77.0,29.65,NNW,338,0.0,0.0,65,0.00,,,0.00,VWS V14.01,2013-07-19 15:02:00,
2013-07-19 11:07:00,90.0,77.1,29.65,NW,315,0.0,0.0,66,0.00,,,0.00,VWS V14.01,2013-07-19 15:07:00,
2013-07-19 11:12:00,89.6,76.3,29.65,NNW,338,0.0,0.0,65,0.00,,,0.00,VWS V14.01,2013-07-19 15:12:00,
2013-07-19 11:17:00,89.2,76.4,29.65,NW,315,0.0,0.0,66,0.00,,,0.00,VWS V14.01,2013-07-19 15:17:00,
2013-07-19 11:22:00,89.4,76.6,29.65,NNW,338,0.0,0.0,66,0.00,,,0.00,VWS V14.01,2013-07-19 15:22:00,
2013-07-19 11:27:00,89.1,76.2,29.65,NW,315,0.0,0.0,66,0.00,,,0.00,VWS V14.01,2013-07-19 15:27:00,
2013-07-19 11:32:00,89.1,76.2,29.65,NNW,338,0.0,0.0,66,0.00,,,0.00,VWS V14.01,2013-07-19 15:32:00,
2013-07-19 11:37:00,88.9,76.1,29.65,NNW,338,0.0,0.0,66,0.00,,,0.00,VWS V14.01,2013-07-19 15:37:00,
2013-07-19 11:42:00,88.5,75.7,29.65,NNW,338,0.0,0.0,66,0.00,,,0.00,VWS V14.01,2013-07-19 15:42:00,
2013-07-19 11:47:00,88.7,75.9,29.65,NW,315,0.0,0.0,66,0.00,,,0.00,VWS V14.01,2013-07-19 15:47:00,
2013-07-19 11:53:00,89.1,76.2,29.65,NW,315,0.0,0.0,66,0.00,,,0.00,VWS V14.01,2013-07-19 15:53:00,
2013-07-19 11:58:00,88.9,76.1,29.65,NNW,338,0.0,0.0,66,0.00,,,0.00,VWS V14.01,2013-07-19 15:58:00,
2013-07-19 12:03:00,88.3,75.6,29.65,NNW,338,0.0,0.0,66,0.00,,,0.00,VWS V14.01,2013-07-19 16:03:00,
2013-07-19 12:08:00,88.3,75.6,29.65,NNW,338,0.0,0.0,66,0.00,,,0.00,VWS V14.01,2013-07-19 16:08:00,
2013-07-19 12:13:00,88.5,75.7,29.65,NNW,338,0.0,0.0,66,0.00,,,0.00,VWS V14.01,2013-07-19 16:13:00,
2013-07-19 12:18:00,88.7,75.9,29.65,NNW,338,0.0,0.0,66,0.00,,,0.00,VWS V14.01,2013-07-19 16:18:00,
2013-07-19 12:23:00,88.2,74.9,29.65,North,0,0.0,0.0,65,0.00,,,0.00,VWS V14.01,2013-07-19 16:23:00,
2013-07-19 12:28:00,88.5,75.3,29.65,North,0,0.0,0.0,65,0.00,,,0.00,VWS V14.01,2013-07-19 16:28:00,
2013-07-19 12:33:00,88.3,75.1,29.65,North,0,0.0,0.0,65,0.00,,,0.00,VWS V14.01,2013-07-19 16:33:00,
2013-07-19 12:38:00,88.7,75.4,29.65,North,0,0.0,0.0,65,0.00,,,0.00,VWS V14.01,2013-07-19 16:38:00,
2013-07-19 12:44:00,89.4,76.6,29.65,North,0,0.0,0.0,66,0.00,,,0.00,VWS V14.01,2013-07-19 16:44:00,
2013-07-19 12:49:00,89.8,76.9,29.65,NNW,338,0.0,0.0,66,0.00,,,0.00,VWS V14.01,2013-07-19 16:49:00,
2013-07-19 12:54:00,90.3,77.0,29.62,North,0,0.0,0.0,65,0.00,,,0.00,VWS V14.01,2013-07-19 16:54:00,
2013-07-19 12:59:00,90.7,76.8,29.62,North,0,0.0,0.0,64,0.00,,,0.00,VWS V14.01,2013-07-19 16:59:00,
2013-07-19 13:04:00,90.3,76.0,29.62,North,0,0.0,0.0,63,0.00,,,0.00,VWS V14.01,2013-07-19 17:04:00,
2013-07-19 13:09:00,90.5,76.2,29.62,SSE,158,0.0,0.0,63,0.00,,,0.00,VWS V14.01,2013-07-19 17:09:00,
2013-07-19 13:14:00,91.2,76.9,29.62,South,180,0.0,0.0,63,0.00,,,0.00,VWS V14.01,2013-07-19 17:14:00,
2013-07-19 13:19:00,92.1,77.2,29.62,South,180,0.0,0.0,62,0.00,,,0.00,VWS V14.01,2013-07-19 17:19:00,
2013-07-19 13:24:00,92.8,77.4,29.62,SSE,158,0.0,0.0,61,0.00,,,0.00,VWS V14.01,2013-07-19 17:24:00,
2013-07-19 13:29:00,92.8,77.4,29.62,South,180,0.0,0.0,61,0.00,,,0.00,VWS V14.01,2013-07-19 17:29:00,
2013-07-19 13:34:00,93.7,78.3,29.62,SSE,158,0.0,0.0,61,0.00,,,0.00,VWS V14.01,2013-07-19 17:34:00,
2013-07-19 13:39:00,94.3,78.3,29.62,South,180,0.0,0.0,60,0.00,,,0.00,VWS V14.01,2013-07-19 17:39:00,
2013-07-19 13:44:00,94.1,77.6,29.62,SSE,158,0.0,0.0,59,0.00,,,0.00,VWS V14.01,2013-07-19 17:44:00,
2013-07-19 13:49:00,93.7,76.7,29.62,SSE,158,0.0,0.0,58,0.00,,,0.00,VWS V14.01,2013-07-19 17:49:00,
2013-07-19 13:54:00,93.6,77.1,29.62,SSE,158,0.0,0.0,59,0.00,,,0.00,VWS V14.01,2013-07-19 17:54:00,
2013-07-19 13:59:00,93.4,76.4,29.62,South,180,0.0,0.0,58,0.00,,,0.00,VWS V14.01,2013-07-19 17:59:00,
2013-07-19 14:04:00,94.5,77.9,29.62,South,180,0.0,0.0,59,0.00,,,0.00,VWS V14.01,2013-07-19 18:04:00,
2013-07-19 14:09:00,94.5,76.9,29.59,SSE,158,0.0,0.0,57,0.00,,,0.00,VWS V14.01,2013-07-19 18:09:00,
2013-07-19 14:14:00,95.2,77.6,29.59,South,180,0.0,0.0,57,0.00,,,0.00,VWS V14.01,2013-07-19 18:14:00,
2013-07-19 14:19:00,95.7,77.5,29.59,SSE,158,0.0,0.0,56,0.00,,,0.00,VWS V14.01,2013-07-19 18:19:00,
2013-07-19 14:24:00,95.5,77.3,29.59,SE,135,0.0,0.0,56,0.00,,,0.00,VWS V14.01,2013-07-19 18:24:00,
2013-07-19 14:30:00,95.7,77.0,29.59,South,180,0.0,0.0,55,0.00,,,0.00,VWS V14.01,2013-07-19 18:30:00,
2013-07-19 14:35:00,95.4,76.6,29.59,ESE,112,0.0,0.0,55,0.00,,,0.00,VWS V14.01,2013-07-19 18:35:00,
2013-07-19 14:40:00,95.4,77.2,29.59,SE,135,0.0,0.0,56,0.00,,,0.00,VWS V14.01,2013-07-19 18:40:00,
2013-07-19 14:45:00,95.2,76.5,29.59,ESE,112,0.0,0.0,55,0.00,,,0.00,VWS V14.01,2013-07-19 18:45:00,
2013-07-19 14:50:00,95.0,76.3,29.59,SSE,158,0.0,0.0,55,0.00,,,0.00,VWS V14.01,2013-07-19 18:50:00,
2013-07-19 14:55:00,95.0,76.3,29.59,South,180,0.0,0.0,55,0.00,,,0.00,VWS V14.01,2013-07-19 18:55:00,
2013-07-19 15:00:00,94.5,75.8,29.59,East,90,0.0,0.0,55,0.00,,,0.00,VWS V14.01,2013-07-19 19:00:00,
2013-07-19 15:05:00,94.1,76.0,29.59,SE,135,0.0,0.0,56,0.00,,,0.00,VWS V14.01,2013-07-19 19:05:00,
2013-07-19 15:10:00,93.7,75.7,29.59,SE,135,0.0,0.0,56,0.00,,,0.00,VWS V14.01,2013-07-19 19:10:00,
2013-07-19 15:15:00,93.6,75.5,29.59,North,0,0.0,0.0,56,0.00,,,0.00,VWS V14.01,2013-07-19 19:15:00,
2013-07-19 15:20:00,93.4,75.9,29.59,North,0,0.0,0.0,57,0.00,,,0.00,VWS V14.01,2013-07-19 19:20:00,
2013-07-19 15:25:00,93.0,75.5,29.56,NNE,22,0.0,0.0,57,0.00,,,0.00,VWS V14.01,2013-07-19 19:25:00,
2013-07-19 15:30:00,93.0,75.0,29.56,North,0,0.0,0.0,56,0.00,,,0.00,VWS V14.01,2013-07-19 19:30:00,
2013-07-19 15:35:00,92.5,74.5,29.56,NNW,338,0.0,0.0,56,0.00,,,0.00,VWS V14.01,2013-07-19 19:35:00,
2013-07-19 15:40:00,92.3,74.9,29.56,SSE,158,0.0,0.0,57,0.00,,,0.00,VWS V14.01,2013-07-19 19:40:00,
2013-07-19 15:45:00,91.9,74.0,29.56,SE,135,0.0,0.0,56,0.00,,,0.00,VWS V14.01,2013-07-19 19:45:00,
2013-07-19 15:50:00,91.9,74.5,29.56,North,0,0.0,0.0,57,0.00,,,0.00,VWS V14.01,2013-07-19 19:50:00,
2013-07-19 15:55:00,91.8,73.8,29.56,ESE,112,0.0,0.0,56,0.00,,,0.00,VWS V14.01,2013-07-19 19:55:00,
2013-07-19 16:00:00,91.2,73.3,29.56,ESE,112,0.0,0.0,56,0.00,,,0.00,VWS V14.01,2013-07-19 20:00:00,
2013-07-19 16:05:00,91.2,73.3,29.56,East,90,0.0,0.0,56,0.00,,,0.00,VWS V14.01,2013-07-19 20:05:00,
2013-07-19 16:10:00,90.7,73.4,29.56,SE,135,0.0,0.0,57,0.00,,,0.00,VWS V14.01,2013-07-19 20:10:00,
2013-07-19 16:16:00,90.9,73.5,29.56,East,90,0.0,0.0,57,0.00,,,0.00,VWS V14.01,2013-07-19 20:16:00,
2013-07-19 16:21:00,90.7,72.8,29.56,SE,135,0.0,0.0,56,0.00,,,0.00,VWS V14.01,2013-07-19 20:21:00,
2013-07-19 16:26:00,90.7,73.4,29.56,SSW,202,0.0,0.0,57,0.00,,,0.00,VWS V14.01,2013-07-19 20:26:00,
2013-07-19 16:31:00,90.5,73.2,29.56,East,90,0.0,0.0,57,0.00,,,0.00,VWS V14.01,2013-07-19 20:31:00,
2013-07-19 16:36:00,90.3,73.0,29.56,SE,135,0.0,0.0,57,0.00,,,0.00,VWS V14.01,2013-07-19 20:36:00,
2013-07-19 16:41:00,90.1,72.9,29.56,North,0,0.0,0.0,57,0.00,,,0.00,VWS V14.01,2013-07-19 20:41:00,
2013-07-19 16:46:00,90.0,72.7,29.56,NNE,22,0.0,0.0,57,0.00,,,0.00,VWS V14.01,2013-07-19 20:46:00,
2013-07-19 16:51:00,89.8,72.0,29.56,NNE,22,0.0,0.0,56,0.00,,,0.00,VWS V14.01,2013-07-19 20:51:00,
2013-07-19 16:56:00,89.6,72.4,29.56,NNE,22,0.0,0.0,57,0.00,,,0.00,VWS V14.01,2013-07-19 20:56:00,
2013-07-19 17:01:00,89.6,72.4,29.56,NNE,22,0.0,0.0,57,0.00,,,0.00,VWS V14.01,2013-07-19 21:01:00,
2013-07-19 17:06:00,89.8,73.0,29.56,North,0,0.0,0.0,58,0.00,,,0.00,VWS V14.01,2013-07-19 21:06:00,
2013-07-19 17:11:00,89.6,72.9,29.56,East,90,0.0,0.0,58,0.00,,,0.00,VWS V14.01,2013-07-19 21:11:00,
2013-07-19 17:16:00,89.2,72.5,29.56,SE,135,0.0,0.0,58,0.00,,,0.00,VWS V14.01,2013-07-19 21:16:00,
2013-07-19 17:21:00,89.2,73.1,29.56,SE,135,0.0,0.0,59,0.00,,,0.00,VWS V14.01,2013-07-19 21:21:00,
2013-07-19 17:26:00,89.2,72.5,29.56,SE,135,0.0,0.0,58,0.00,,,0.00,VWS V14.01,2013-07-19 21:26:00,
2013-07-19 17:28:00,89.1,71.9,29.56,SSE,158,0.0,0.0,57,0.00,,,0.00,VWS V14.01,2013-07-19 21:28:00,
2013-07-19 17:33:00,89.1,72.4,29.56,SE,135,0.0,0.0,58,0.00,,,0.00,VWS V14.01,2013-07-19 21:33:00,
2013-07-19 17:38:00,89.1,72.4,29.56,SSE,158,0.0,0.0,58,0.00,,,0.00,VWS V14.01,2013-07-19 21:38:00,
2013-07-19 17:43:00,89.1,72.4,29.56,SSE,158,0.0,0.0,58,0.00,,,0.00,VWS V14.01,2013-07-19 21:43:00,
2013-07-19 17:49:00,89.1,72.9,29.56,SE,135,0.0,0.0,59,0.00,,,0.00,VWS V14.01,2013-07-19 21:49:00,
2013-07-19 17:54:00,88.9,73.2,29.56,SSE,158,0.0,0.0,60,0.00,,,0.00,VWS V14.01,2013-07-19 21:54:00,
2013-07-19 17:59:00,88.9,73.2,29.56,SE,135,0.0,0.0,60,0.00,,,0.00,VWS V14.01,2013-07-19 21:59:00,
2013-07-19 18:04:00,88.7,72.5,29.56,NNE,22,0.0,0.0,59,0.00,,,0.00,VWS V14.01,2013-07-19 22:04:00,
2013-07-19 18:09:00,88.7,72.5,29.56,NNW,338,0.0,0.0,59,0.00,,,0.00,VWS V14.01,2013-07-19 22:09:00,
2013-07-19 18:14:00,88.3,72.2,29.56,SE,135,0.0,0.0,59,0.00,,,0.00,VWS V14.01,2013-07-19 22:14:00,
2013-07-19 18:19:00,88.3,72.2,29.56,SSW,202,0.0,0.0,59,0.00,,,0.00,VWS V14.01,2013-07-19 22:19:00,
2013-07-19 18:24:00,88.2,72.0,29.56,WSW,248,0.0,0.0,59,0.00,,,0.00,VWS V14.01,2013-07-19 22:24:00,
2013-07-19 18:29:00,88.0,71.4,29.56,ESE,112,0.0,0.0,58,0.00,,,0.00,VWS V14.01,2013-07-19 22:29:00,
2013-07-19 18:34:00,88.0,71.4,29.56,SE,135,0.0,0.0,58,0.00,,,0.00,VWS V14.01,2013-07-19 22:34:00,
2013-07-19 18:39:00,87.8,71.7,29.53,SSE,158,0.0,0.0,59,0.00,,,0.00,VWS V14.01,2013-07-19 22:39:00,
2013-07-19 18:44:00,87.6,71.5,29.53,SE,135,0.0,0.0,59,0.00,,,0.00,VWS V14.01,2013-07-19 22:44:00,
2013-07-19 18:49:00,87.4,71.4,29.53,SE,135,0.0,0.0,59,0.00,,,0.00,VWS V14.01,2013-07-19 22:49:00,
2013-07-19 18:54:00,87.3,71.2,29.56,SE,135,0.0,0.0,59,0.00,,,0.00,VWS V14.01,2013-07-19 22:54:00,
2013-07-19 18:59:00,87.3,71.2,29.56,NW,315,0.0,0.0,59,0.00,,,0.00,VWS V14.01,2013-07-19 22:59:00,
2013-07-19 19:04:00,87.1,71.0,29.56,North,0,0.0,0.0,59,0.00,,,0.00,VWS V14.01,2013-07-19 23:04:00,
2013-07-19 19:09:00,87.1,71.5,29.56,North,0,0.0,0.0,60,0.00,,,0.00,VWS V14.01,2013-07-19 23:09:00,
2013-07-19 19:14:00,86.9,71.3,29.56,North,0,0.0,0.0,60,0.00,,,0.00,VWS V14.01,2013-07-19 23:14:00,
2013-07-19 19:19:00,86.7,71.2,29.56,NNE,22,0.0,0.0,60,0.00,,,0.00,VWS V14.01,2013-07-19 23:19:00,
2013-07-19 19:25:00,86.5,71.0,29.56,North,0,0.0,0.0,60,0.00,,,0.00,VWS V14.01,2013-07-19 23:25:00,
2013-07-19 19:30:00,86.5,71.0,29.56,North,0,0.0,0.0,60,0.00,,,0.00,VWS V14.01,2013-07-19 23:30:00,
2013-07-19 19:35:00,86.4,70.8,29.56,North,0,0.0,0.0,60,0.00,,,0.00,VWS V14.01,2013-07-19 23:35:00,
2013-07-19 19:40:00,86.2,71.2,29.56,North,0,0.0,0.0,61,0.00,,,0.00,VWS V14.01,2013-07-19 23:40:00,
2013-07-19 19:45:00,86.0,71.0,29.56,North,0,0.0,0.0,61,0.00,,,0.00,VWS V14.01,2013-07-19 23:45:00,
2013-07-19 19:50:00,85.8,71.3,29.56,North,0,0.0,0.0,62,0.00,,,0.00,VWS V14.01,2013-07-19 23:50:00,
2013-07-19 19:55:00,85.6,71.1,29.56,North,0,0.0,0.0,62,0.00,,,0.00,VWS V14.01,2013-07-19 23:55:00,
2013-07-19 20:00:00,85.5,71.4,29.56,North,0,0.0,0.0,63,0.00,,,0.00,VWS V14.01,2013-07-20 00:00:00,
2013-07-19 20:05:00,85.1,71.6,29.56,North,0,0.0,0.0,64,0.00,,,0.00,VWS V14.01,2013-07-20 00:05:00,
2013-07-19 20:10:00,84.9,71.4,29.56,North,0,0.0,0.0,64,0.00,,,0.00,VWS V14.01,2013-07-20 00:10:00,
2013-07-19 20:15:00,84.6,71.5,29.56,North,0,0.0,0.0,65,0.00,,,0.00,VWS V14.01,2013-07-20 00:15:00,
2013-07-19 20:20:00,84.4,71.3,29.56,North,0,0.0,0.0,65,0.00,,,0.00,VWS V14.01,2013-07-20 00:20:00,
2013-07-19 20:25:00,84.2,71.2,29.56,North,0,0.0,0.0,65,0.00,,,0.00,VWS V14.01,2013-07-20 00:25:00,
2013-07-19 20:30:00,84.0,71.4,29.56,North,0,0.0,0.0,66,0.00,,,0.00,VWS V14.01,2013-07-20 00:30:00,
2013-07-19 20:35:00,83.8,71.3,29.56,North,0,0.0,0.0,66,0.00,,,0.00,VWS V14.01,2013-07-20 00:35:00,
2013-07-19 20:40:00,83.7,71.1,29.56,North,0,0.0,0.0,66,0.00,,,0.00,VWS V14.01,2013-07-20 00:40:00,
2013-07-19 20:45:00,83.5,71.4,29.56,North,0,0.0,0.0,67,0.00,,,0.00,VWS V14.01,2013-07-20 00:45:00,
2013-07-19 20:50:00,83.1,71.0,29.56,North,0,0.0,0.0,67,0.00,,,0.00,VWS V14.01,2013-07-20 00:50:00,
2013-07-19 20:55:00,82.9,70.9,29.56,North,0,0.0,0.0,67,0.00,,,0.00,VWS V14.01,2013-07-20 00:55:00,
2013-07-19 21:00:00,82.8,70.7,29.56,North,0,0.0,0.0,67,0.00,,,0.00,VWS V14.01,2013-07-20 01:00:00,
2013-07-19 21:05:00,82.6,71.0,29.56,North,0,0.0,0.0,68,0.00,,,0.00,VWS V14.01,2013-07-20 01:05:00,
2013-07-19 21:11:00,82.2,70.6,29.56,North,0,0.0,0.0,68,0.00,,,0.00,VWS V14.01,2013-07-20 01:11:00,
2013-07-19 21:16:00,82.2,71.0,29.56,North,0,0.0,0.0,69,0.00,,,0.00,VWS V14.01,2013-07-20 01:16:00,
2013-07-19 21:21:00,82.0,70.9,29.56,North,0,0.0,0.0,69,0.00,,,0.00,VWS V14.01,2013-07-20 01:21:00,
2013-07-19 21:26:00,81.9,70.7,29.56,North,0,0.0,0.0,69,0.00,,,0.00,VWS V14.01,2013-07-20 01:26:00,
2013-07-19 21:31:00,81.7,70.5,29.56,North,0,0.0,0.0,69,0.00,,,0.00,VWS V14.01,2013-07-20 01:31:00,
2013-07-19 21:36:00,81.3,70.2,29.56,North,0,0.0,0.0,69,0.00,,,0.00,VWS V14.01,2013-07-20 01:36:00,
2013-07-19 21:41:00,81.3,70.2,29.56,North,0,0.0,0.0,69,0.00,,,0.00,VWS V14.01,2013-07-20 01:41:00,
2013-07-19 21:46:00,81.1,70.0,29.56,North,0,0.0,0.0,69,0.00,,,0.00,VWS V14.01,2013-07-20 01:46:00,
2013-07-19 21:51:00,81.0,70.3,29.56,North,0,0.0,0.0,70,0.00,,,0.00,VWS V14.01,2013-07-20 01:51:00,
2013-07-19 21:56:00,81.0,70.3,29.56,North,0,0.0,0.0,70,0.00,,,0.00,VWS V14.01,2013-07-20 01:56:00,
2013-07-19 22:01:00,80.8,70.1,29.56,North,0,0.0,0.0,70,0.00,,,0.00,VWS V14.01,2013-07-20 02:01:00,
2013-07-19 22:07:00,80.4,70.2,29.56,North,0,0.0,0.0,71,0.00,,,0.00,VWS V14.01,2013-07-20 02:07:00,
2013-07-19 22:12:00,80.4,70.2,29.56,North,0,0.0,0.0,71,0.00,,,0.00,VWS V14.01,2013-07-20 02:12:00,
2013-07-19 22:17:00,80.2,70.4,29.56,North,0,0.0,0.0,72,0.00,,,0.00,VWS V14.01,2013-07-20 02:17:00,
2013-07-19 22:22:00,80.2,70.4,29.56,North,0,0.0,0.0,72,0.00,,,0.00,VWS V14.01,2013-07-20 02:22:00,
2013-07-19 22:27:00,80.1,70.2,29.59,North,0,0.0,0.0,72,0.00,,,0.00,VWS V14.01,2013-07-20 02:27:00,
2013-07-19 22:32:00,79.9,70.1,29.59,North,0,0.0,0.0,72,0.00,,,0.00,VWS V14.01,2013-07-20 02:32:00,
2013-07-19 22:37:00,79.9,69.2,29.59,North,0,0.0,0.0,70,0.00,,,0.00,VWS V14.01,2013-07-20 02:37:00,
2013-07-19 22:42:00,79.7,69.9,29.59,North,0,0.0,0.0,72,0.00,,,0.00,VWS V14.01,2013-07-20 02:42:00,
2013-07-19 22:47:00,79.7,69.9,29.59,North,0,0.0,0.0,72,0.00,,,0.00,VWS V14.01,2013-07-20 02:47:00,
2013-07-19 22:52:00,79.5,70.1,29.59,North,0,0.0,0.0,73,0.00,,,0.00,VWS V14.01,2013-07-20 02:52:00,
2013-07-19 22:57:00,79.5,70.1,29.59,North,0,0.0,0.0,73,0.00,,,0.00,VWS V14.01,2013-07-20 02:57:00,
2013-07-19 23:02:00,79.5,70.1,29.59,North,0,0.0,0.0,73,0.00,,,0.00,VWS V14.01,2013-07-20 03:02:00,
2013-07-19 23:07:00,79.5,69.7,29.59,North,0,0.0,0.0,72,0.00,,,0.00,VWS V14.01,2013-07-20 03:07:00,
2013-07-19 23:12:00,79.5,69.3,29.59,North,0,0.0,0.0,71,0.00,,,0.00,VWS V14.01,2013-07-20 03:12:00,
2013-07-19 23:17:00,79.5,69.3,29.59,North,0,0.0,0.0,71,0.00,,,0.00,VWS V14.01,2013-07-20 03:17:00,
2013-07-19 23:22:00,79.5,69.3,29.59,North,0,0.0,0.0,71,0.00,,,0.00,VWS V14.01,2013-07-20 03:22:00,
2013-07-19 23:27:00,79.3,69.5,29.59,North,0,0.0,0.0,72,0.00,,,0.00,VWS V14.01,2013-07-20 03:27:00,
2013-07-19 23:32:00,79.3,69.5,29.59,North,0,0.0,0.0,72,0.00,,,0.00,VWS V14.01,2013-07-20 03:32:00,
2013-07-19 23:37:00,79.3,69.5,29.59,North,0,0.0,0.0,72,0.00,,,0.00,VWS V14.01,2013-07-20 03:37:00,
2013-07-19 23:42:00,79.3,69.5,29.59,North,0,0.0,0.0,72,0.00,,,0.00,VWS V14.01,2013-07-20 03:42:00,
2013-07-19 23:47:00,79.3,69.9,29.59,North,0,0.0,0.0,73,0.00,,,0.00,VWS V14.01,2013-07-20 03:47:00,
2013-07-19 23:52:00,79.3,69.9,29.59,NNE,22,0.0,0.0,73,0.00,,,0.00,VWS V14.01,2013-07-20 03:52:00,
2013-07-19 23:57:00,79.3,69.9,29.59,NNE,22,0.0,0.0,73,0.00,,,0.00,VWS V14.01,2013-07-20 03:57:00,